Vorticity
nan nan nan nan nan nan nan nan nan nan nan nan nan nan nan nan nan nan nan nan nan nan nan nan nan nan nan nan nan nan nan nan nan nan nan nan nan nan nan nan nan nan nan nan nan nan nan nan nan
nan 11 11 8 6 6 7 8 6 3 3 5 7 8 10 5 5 6 -3 -1 8 12 20 21 10 7 6 5 4 5 6 6 6 6 5 5 4 4 5 4 5 5 5 6 4 5 4 5 nan
nan 9 8 8 4 4 5 4 7 4 8 11 7 6 8 13 8 2 -2 4 6 9 10 23 18 7 7 5 5 5 5 5 6 6 5 5 5 5 5 5 5 4 5 5 6 4 5 5 nan
nan 6 10 9 5 5 3 3 5 12 6 5 8 5 6 9 5 3 5 5 6 6 9 18 27 13 6 6 6 5 5 5 5 6 6 5 6 6 6 6 5 6 7 4 4 5 5 5 nan
nan 9 8 7 7 4 4 8 7 11 6 -0 8 10 7 6 2 3 5 5 6 6 6 2 32 34 3 6 7 6 5 5 6 6 6 6 6 6 5 6 6 7 6 7 4 3 5 5 nan
nan 8 7 8 4 4 8 5 11 4 4 6 5 9 10 -6 -5 5 7 7 4 4 5 3 3 30 29 5 7 7 6 6 6 6 6 6 5 6 6 6 6 6 6 6 5 6 5 4 nan
nan 9 7 6 7 4 5 7 7 4 6 9 7 8 5 -5 -3 4 8 8 6 4 4 4 5 7 26 23 8 8 7 6 6 6 6 5 6 7 6 5 6 5 6 5 6 7 6 5 nan
nan 7 8 6 8 5 3 8 2 6 7 9 8 4 0 -3 1 8 8 7 6 6 5 5 6 9 10 15 21 18 7 8 6 6 5 7 9 7 4 3 6 5 6 6 5 6 5 6 nan
nan 8 7 7 7 4 1 6 8 9 5 3 0 4 2 4 8 6 6 7 5 6 6 5 8 5 3 11 11 19 18 6 5 5 7 6 6 7 5 7 8 6 7 7 6 6 6 4 nan
nan 10 9 4 4 6 6 5 6 6 3 2 6 5 3 7 5 4 5 5 4 6 8 7 7 4 7 7 8 21 19 8 6 6 5 5 7 6 6 8 6 5 6 5 6 6 -1 -2 nan
nan 7 7 5 5 7 7 8 7 3 4 7 3 -0 7 5 4 7 6 6 6 8 7 5 7 5 7 8 10 12 18 12 9 8 5 5 5 7 6 5 5 6 4 5 6 2 2 5 nan
nan 7 6 7 4 3 7 5 7 5 3 6 6 8 7 7 8 9 8 5 9 8 10 10 3 7 7 8 7 6 5 14 14 10 6 3 7 8 6 7 7 6 4 6 6 6 8 7 nan
nan 6 5 6 3 7 9 7 11 7 14 12 10 10 9 9 11 11 7 8 9 9 12 7 5 9 3 7 8 6 6 8 15 15 7 4 6 7 6 7 7 5 7 6 6 8 7 7 nan
nan 5 6 7 12 10 10 11 13 10 9 8 10 10 11 9 12 11 11 9 9 9 10 12 11 8 6 6 5 7 7 4 13 18 12 6 4 7 7 7 7 7 7 9 9 7 6 7 nan
nan 9 13 11 10 7 10 10 6 3 6 5 6 6 11 13 11 7 8 8 7 8 7 15 16 6 7 5 7 8 6 8 7 19 16 8 6 6 6 6 7 7 7 7 6 7 8 7 nan
nan 8 10 8 8 11 8 4 2 7 7 5 9 11 9 10 5 5 6 7 7 8 8 8 11 11 11 8 8 9 8 6 6 4 21 21 7 6 4 6 7 7 7 6 7 6 6 7 nan
nan 10 3 7 11 8 -3 -2 4 11 9 14 13 12 8 4 4 5 6 8 8 8 7 6 8 10 12 16 15 6 5 8 8 7 21 15 9 5 4 6 9 7 6 7 6 8 7 5 nan
nan 8 6 5 2 4 3 7 2 12 16 16 11 5 6 6 5 6 7 8 7 9 9 10 7 7 11 14 14 13 10 7 6 9 9 15 18 8 4 7 8 6 6 7 9 8 8 7 nan
nan 7 6 4 8 12 8 5 14 10 8 8 8 7 7 7 7 6 7 8 8 8 8 7 7 9 12 10 10 10 10 9 8 5 5 23 18 8 3 7 8 7 8 9 6 7 4 4 nan
nan 8 9 11 9 3 8 15 22 10 7 4 4 6 6 6 8 7 8 8 8 7 7 7 9 9 11 9 10 9 6 9 10 8 8 15 21 13 5 7 8 5 7 10 8 3 -2 9 nan
nan 10 7 4 9 10 16 20 14 6 2 3 5 6 6 5 6 7 8 8 8 7 8 7 8 9 9 9 9 9 11 11 7 5 11 16 20 16 10 7 7 7 5 9 9 5 4 4 nan
nan 8 3 8 14 16 12 15 8 9 4 3 3 6 5 6 7 6 6 8 8 9 9 9 7 10 8 9 10 10 10 9 8 8 4 16 20 11 15 15 7 4 6 9 7 6 6 7 nan
nan 5 13 17 10 9 6 17 7 8 12 6 4 6 6 5 5 8 7 8 9 9 9 10 8 9 9 10 10 9 9 10 9 8 8 13 14 13 15 12 15 8 7 11 9 6 6 5 nan
nan 11 12 12 10 7 13 7 7 10 6 5 6 4 5 4 7 9 8 9 9 8 8 9 10 8 9 9 10 10 8 8 10 9 10 11 13 12 9 10 10 10 14 11 10 8 8 6 nan
nan 10 7 5 13 12 6 4 12 9 10 5 3 6 9 7 6 6 7 8 8 7 8 8 9 8 10 9 9 10 11 11 11 10 10 12 13 14 11 9 7 9 10 9 10 10 9 7 nan
nan 10 8 7 7 10 9 7 12 13 7 5 6 7 6 9 9 8 7 7 8 8 7 7 7 9 9 9 11 11 13 12 10 9 7 12 15 16 11 8 8 7 7 8 5 7 8 8 nan
nan 9 9 10 9 9 6 8 12 10 5 7 8 7 7 8 8 8 10 9 7 8 8 8 8 10 8 10 11 10 9 9 9 10 11 11 10 14 14 9 8 9 8 8 3 7 9 6 nan
nan 5 6 9 11 9 9 12 12 7 11 8 7 7 8 8 7 9 10 9 8 9 9 9 9 8 9 11 11 10 10 10 10 11 11 10 12 15 11 10 11 11 10 9 7 6 9 7 nan
nan 4 10 14 9 8 10 12 17 12 13 10 6 7 8 8 8 9 9 9 9 8 9 9 8 8 9 10 10 10 11 10 11 12 14 11 15 18 10 9 8 10 9 9 8 10 11 8 nan
nan nan nan nan nan nan nan nan nan nan nan nan nan nan nan nan nan nan nan nan nan nan nan nan nan nan nan nan nan nan nan nan nan nan nan nan nan nan nan nan nan nan nan nan nan nan nan nan nan
CAPE
0 0 1 1 0 0 0 0 0 0 0 0 0 0 0 0 0 0 0 0 0 0 244 1625 1992 2257 2420 2290 2365 2425 2433 2512 2505 2461 2331 2021 1826 1850 1779 1439 1361 1245 888 381 402 157 191 84 46
0 0 0 6 0 0 0 0 0 0 0 0 0 0 0 0 0 0 0 0 0 0 9 1290 2044 2144 2335 2246 2248 2291 2348 2369 2355 2331 2128 1840 1844 1684 1760 1531 1174 855 887 511 125 58 50 20 7
0 0 0 0 0 0 0 0 0 0 0 0 0 0 0 0 0 0 0 0 0 0 0 23 1459 2234 2227 2240 2117 2204 2249 2235 2140 2059 1899 1762 1674 1544 1677 1407 937 695 361 213 26 4 21 12 12
0 0 0 1 0 0 0 0 0 0 0 0 0 0 0 0 0 0 0 0 0 0 0 1 541 1785 2143 2159 2050 2142 2225 2181 1984 1820 1700 1619 1494 1690 1671 1159 745 158 0 9 15 11 13 8 9
0 0 0 0 0 0 0 0 0 0 0 0 0 0 0 0 0 0 0 0 0 0 0 0 10 1323 1882 2105 1971 1873 2100 2115 1921 1753 1679 1480 1525 1733 1310 881 326 7 1 10 17 17 20 6 3
0 0 0 0 0 0 0 0 0 0 0 0 0 0 0 0 0 0 0 0 0 0 0 0 9 11 1037 1781 1782 1680 1789 1961 1812 1589 1469 1440 1779 1490 1105 511 85 0 13 19 16 16 19 7 6
0 0 0 0 0 0 0 0 0 0 0 0 0 0 0 0 0 0 0 0 0 0 0 0 2 4 3 901 1466 1542 1512 1590 1583 1353 1233 1271 1398 1063 733 295 40 5 15 18 19 31 24 16 6
0 0 0 0 0 0 0 0 0 0 0 0 0 0 0 0 0 0 0 0 0 0 0 0 0 2 12 10 91 1171 1281 1206 1245 1046 988 1013 673 516 342 29 11 9 6 11 29 17 28 20 7
0 0 0 0 0 0 0 0 0 0 0 0 0 0 0 0 0 0 0 0 0 0 0 0 0 0 0 5 16 14 899 845 938 837 522 351 466 265 51 0 0 0 6 21 21 38 40 18 1
0 0 0 0 0 0 0 0 0 0 0 0 0 0 0 0 0 0 0 0 0 0 0 0 0 0 0 3 2 3 463 711 793 701 372 555 376 157 27 0 0 0 7 25 31 48 28 0 0
0 0 0 0 0 0 0 0 0 0 0 0 0 0 0 0 0 0 0 0 0 0 0 0 0 0 0 2 0 3 16 534 547 554 551 461 238 41 0 0 0 0 6 8 11 9 0 0 0
0 0 0 0 0 0 0 0 0 0 0 0 0 0 0 0 0 0 0 0 0 0 0 0 0 2 0 0 0 3 13 21 488 401 458 258 84 18 0 0 0 0 1 0 0 0 0 0 0
0 0 0 0 0 0 0 0 0 0 0 0 0 0 0 0 0 0 0 0 0 0 0 0 0 0 0 0 0 6 6 16 135 349 256 104 45 8 0 0 0 0 0 0 0 0 0 0 0
0 0 0 0 0 0 0 0 0 0 0 0 0 0 0 0 0 0 0 0 0 0 0 0 0 0 0 0 8 0 8 11 8 106 179 145 21 2 0 0 0 0 0 0 0 0 0 0 0
0 0 0 0 0 0 0 0 0 0 0 0 0 0 0 0 0 0 0 0 0 0 0 1 0 0 0 0 5 0 6 0 8 1 147 122 33 0 0 0 0 0 0 0 0 0 0 0 0
0 0 0 0 0 0 0 0 0 0 0 0 0 0 0 0 0 0 0 0 0 0 0 0 0 1 0 0 0 3 3 0 3 11 20 65 9 0 0 0 0 0 0 0 0 0 0 0 0
0 0 0 0 0 0 0 0 0 0 0 0 0 0 0 0 0 0 0 0 0 0 0 0 0 0 17 5 13 33 2 0 2 5 1 52 0 0 0 0 0 0 0 0 0 0 0 0 0
0 0 0 0 0 0 0 0 0 0 0 0 0 0 0 0 0 0 0 0 0 0 0 0 0 0 3 4 28 16 4 0 0 12 26 34 1 0 0 0 0 0 0 0 0 0 0 0 0
0 0 0 0 0 0 0 0 0 0 0 0 0 0 0 0 0 0 0 0 0 0 0 0 0 0 1 7 8 18 6 0 0 3 0 5 1 0 0 0 0 0 0 0 0 0 0 0 0
0 0 0 0 0 0 0 0 0 0 0 0 0 0 0 0 0 0 0 0 0 0 0 0 0 0 0 7 6 12 7 22 4 0 0 6 9 0 0 0 0 0 0 0 0 0 0 0 0
0 0 0 0 0 0 0 0 0 0 0 0 0 0 0 0 0 0 0 0 0 0 0 0 0 1 0 3 10 7 4 4 17 0 15 39 12 4 0 0 0 0 0 0 0 0 0 0 0
0 0 0 0 0 0 0 0 0 0 0 0 0 0 0 0 0 0 0 0 0 0 0 0 0 1 1 2 5 7 9 8 9 4 0 1 2 8 1 0 0 0 0 0 0 0 0 0 0
0 0 0 0 0 0 0 0 0 0 0 0 0 0 0 0 0 0 0 0 0 0 0 0 0 0 1 3 3 7 7 11 12 13 0 0 3 0 0 0 0 0 0 0 0 0 0 0 0
0 0 0 0 0 0 0 0 0 0 0 0 0 0 0 0 0 0 0 0 0 0 0 0 0 0 1 2 3 5 6 9 10 9 0 0 12 0 0 0 0 0 0 0 0 0 0 0 0
0 0 0 0 0 0 0 0 0 0 0 0 0 0 0 0 0 0 0 0 0 0 0 0 0 1 0 1 4 5 5 6 7 4 7 2 20 0 0 0 0 0 0 0 0 0 0 0 0
0 0 0 0 0 0 0 0 0 0 0 0 0 0 0 0 0 0 0 0 0 0 0 0 0 1 1 3 5 7 2 8 7 7 4 11 45 1 0 0 0 0 0 0 0 0 0 0 0
0 0 0 0 0 0 0 0 0 0 0 0 0 0 0 0 0 0 0 0 0 0 0 0 0 0 2 6 7 7 5 5 5 5 6 1 30 0 1 0 0 0 0 0 0 0 0 0 0
0 0 0 0 0 0 0 0 0 0 0 0 0 0 0 0 0 0 0 0 0 0 0 0 0 0 2 7 6 7 6 6 5 6 7 2 10 10 1 1 0 0 0 0 0 0 0 0 0
0 0 0 0 0 0 0 0 0 0 0 0 0 0 0 0 0 0 0 0 0 0 0 0 0 0 1 4 5 8 7 7 3 8 9 7 5 63 0 0 1 1 1 1 2 0 0 0 0
0 0 0 0 0 0 0 0 0 0 0 0 0 0 0 0 0 0 0 0 0 0 0 0 0 0 0 2 4 8 9 8 2 6 5 6 2 97 3 0 0 0 0 0 0 0 0 0 0